DateTime,F1_A11,F1_S11,BsB_S11,BsG_S11,BsR_S11,BbsB_S11,BbsG_S11,BbsR_S11,BaB_A11,BaG_A11,BaR_A11,T_S11,U_S11,P_S11,T1_A11
2016-07-23T00:00:00Z,0000380,20000600,,,,,,,,,,27.0,06.4,0679.2,34.6
2016-07-23T00:01:00Z,0000380,20000600,,,,,,,,,,27.0,06.4,0679.2,34.6
2016-07-23T00:02:00Z,0000380,20000600,,,,,,,,,,27.0,06.4,0679.2,34.6
2016-07-23T00:03:00Z,0000380,60000600,,,,,,,,,,27.0,06.4,0679.2,34.6
2016-07-23T00:04:00Z,0000380,40000600,0000.95,0000.54,-000.64,-000.48,0000.12,0000.05,-000.13,0000.03,-000.42,27.1,06.1,0680.1,34.6
2016-07-23T00:05:00Z,0000380,00000600,0001.21,0000.58,0000.03,-000.17,-000.20,0000.23,0000.11,-000.06,-000.13,27.1,06.2,0680.2,34.6
2016-07-23T00:06:00Z,0000380,00000600,-000.09,0001.11,-000.09,0000.28,0000.08,-000.16,0000.07,-000.02,0000.41,27.1,06.2,0680.2,34.6
2016-07-23T00:07:00Z,0000380,00000600,0000.00,-000.15,-000.14,-000.50,-000.36,-000.09,-000.10,0000.01,-000.35,27.1,06.0,0680.2,34.6
2016-07-23T00:08:00Z,0000380,00000600,0000.40,0000.49,-000.18,0000.20,0000.25,-000.06,-000.04,-000.01,-000.07,27.1,05.9,0680.2,34.6
2016-07-23T00:09:00Z,0000380,00000600,0000.06,0001.03,-000.28,0000.14,0000.05,-000.09,-000.11,-000.01,0000.17,27.1,05.9,0680.2,34.6
2016-07-23T00:10:00Z,0000380,00000600,0000.46,0000.22,-000.21,-000.17,0000.16,0000.09,-000.02,-000.12,-000.15,27.0,05.8,0680.2,34.6
2016-07-23T00:11:00Z,0000380,00000600,0000.50,0000.23,-000.09,-000.58,0000.05,-000.06,0000.05,-000.15,-000.05,27.0,05.6,0680.2,34.6
2016-07-23T00:12:00Z,0000380,00000600,0001.03,0000.44,0000.09,0000.33,0000.08,0000.26,-000.08,-000.03,0000.06,27.0,05.5,0680.2,34.6
2016-07-23T00:13:00Z,0000380,00000600,0001.18,0000.54,0000.24,0000.30,0000.09,0000.00,0000.10,0000.10,0000.09,27.0,05.5,0680.2,34.6
2016-07-23T00:14:00Z,0000380,00000600,0000.91,0000.83,-000.09,-000.08,0000.47,-000.17,-000.05,-000.02,-000.23,27.0,05.6,0680.2,34.6
2016-07-23T00:15:00Z,0000380,00000600,-000.10,0000.49,0000.17,-000.20,0000.12,-000.02,0000.00,-000.08,0000.25,27.0,05.5,0680.2,34.6
2016-07-23T00:16:00Z,0000380,00000600,0000.04,0000.03,-000.03,-000.23,-000.14,0000.03,-000.08,-000.02,-000.39,27.0,05.3,0680.2,34.6
2016-07-23T00:17:00Z,0000380,00000600,-000.39,0000.23,0000.00,0000.06,0000.05,-000.25,0000.01,-000.09,0000.06,27.0,05.2,0680.2,34.6
2016-07-23T00:18:00Z,0000380,00000600,0000.61,0000.07,0000.55,-000.06,0000.12,0000.19,0000.03,0000.22,0000.01,27.0,05.4,0680.2,34.6
2016-07-23T00:19:00Z,0000380,00000600,0000.85,0000.46,0000.31,-000.33,0000.20,0000.36,0000.07,-000.02,0000.03,27.0,05.4,0680.2,34.6
2016-07-23T00:20:00Z,0000380,00000600,-000.68,0000.50,0000.24,-000.23,0000.05,0000.20,-000.04,-000.01,0000.31,27.0,05.4,0680.2,34.6
2016-07-23T00:21:00Z,0000380,00000600,-000.21,0000.77,-000.05,0000.72,0000.06,-000.30,0000.01,0000.10,0000.10,27.0,05.4,0680.2,34.6
2016-07-23T00:22:00Z,0000380,00000600,0000.27,0000.65,-000.03,-000.20,0000.51,-000.25,0000.26,-000.06,-000.23,27.0,05.5,0680.2,34.6
2016-07-23T00:23:00Z,0000380,00000600,0000.39,0000.49,0000.55,0000.19,0000.20,-000.03,-000.03,0000.10,0000.11,27.0,05.5,0680.1,34.6
2016-07-23T00:24:00Z,0000380,00000600,0000.19,0000.52,0000.18,0000.19,0000.29,-000.26,0000.04,-000.08,0000.04,27.0,05.6,0680.1,34.6
2016-07-23T00:25:00Z,0000380,00000600,0001.17,0000.48,-000.25,-000.78,-000.12,0000.20,-000.07,0000.11,0000.05,27.1,05.6,0680.1,34.6
2016-07-23T00:26:00Z,0000380,00000600,0000.02,0000.20,-000.44,-000.70,0000.25,0000.03,0000.01,-000.04,-000.13,27.0,05.5,0680.1,34.6
2016-07-23T00:27:00Z,0000380,00000600,0000.19,-000.02,0000.31,-000.55,0000.67,-000.25,0000.12,0000.04,0000.04,27.1,05.6,0680.2,34.6
2016-07-23T00:28:00Z,0000380,00000600,0000.86,0000.19,-000.19,-000.34,0000.11,0000.05,-000.11,0000.00,-000.01,27.1,05.6,0680.1,34.6
2016-07-23T00:29:00Z,0000380,00000600,0002.27,0000.96,0000.25,-000.25,0000.65,0000.00,0000.07,0000.12,-000.00,27.1,05.6,0680.2,34.6
2016-07-23T00:30:00Z,0000380,00000600,0001.03,0000.75,0000.27,0000.20,0000.02,0000.03,0000.04,-000.10,0000.09,27.1,05.7,0680.2,34.6
2016-07-23T00:31:00Z,0000380,00000600,-000.21,-000.06,-000.11,-000.44,0000.37,-000.27,0000.20,0000.09,-000.07,27.1,05.7,0680.2,34.6
2016-07-23T00:32:00Z,0000380,00000600,0000.25,0000.95,0000.53,-000.23,0000.12,0000.03,-000.03,-000.10,0000.18,27.2,05.5,0680.2,34.6
2016-07-23T00:33:00Z,0000380,00000600,0000.21,0000.05,0000.15,-000.17,0000.29,-000.12,-000.10,0000.19,-000.05,27.1,05.5,0680.1,34.6
2016-07-23T00:34:00Z,0000380,00000600,0000.37,0000.51,-000.03,-000.44,0000.43,0000.33,0000.03,0000.03,0000.09,27.2,05.6,0680.1,34.6
2016-07-23T00:35:00Z,0000380,00000600,-000.33,0000.69,0000.15,-000.11,0000.25,0000.11,-000.05,-000.11,-000.19,27.2,05.6,0680.1,34.6
2016-07-23T00:36:00Z,0000380,00000600,0000.26,0000.08,-000.56,-000.53,0000.57,-000.09,0000.24,0000.06,0000.22,27.2,05.7,0680.1,34.6
2016-07-23T00:37:00Z,0000380,00000600,0000.52,0000.48,0000.27,-000.05,0000.11,-000.14,-000.20,0000.02,-000.08,27.2,05.7,0680.1,34.6
2016-07-23T00:38:00Z,0000380,00000600,-000.31,0000.88,0000.37,-000.61,0000.00,0000.19,0000.16,-000.10,-000.00,27.2,05.6,0680.1,34.6
2016-07-23T00:39:00Z,0000380,00000600,0000.86,0000.62,-000.03,-000.16,0000.20,-000.08,-000.17,-000.02,-000.23,27.2,05.6,0680.1,34.6
2016-07-23T00:40:00Z,0000380,00000600,0001.67,0001.68,0000.73,-000.31,0000.36,0000.00,0000.21,0000.34,0000.18,27.2,05.7,0680.1,34.6
2016-07-23T00:41:00Z,0000380,00000600,0002.30,0001.39,-000.06,-000.08,0000.40,0000.05,0000.14,0000.01,0000.41,27.2,05.8,0680.1,34.6
2016-07-23T00:42:00Z,0000380,00000600,0002.71,0001.97,0000.54,-000.22,0000.37,-000.22,0000.11,-000.01,-000.14,27.2,05.9,0680.1,34.6
2016-07-23T00:43:00Z,0000380,00000600,0003.68,0001.41,0000.57,0000.30,0000.50,0000.11,0000.18,0000.29,0000.07,27.2,05.9,0680.1,34.6
2016-07-23T00:44:00Z,0000380,00000600,0003.35,0001.69,0000.63,0000.55,0000.20,0000.12,0000.07,-000.11,0000.16,27.2,05.9,0680.1,34.6
2016-07-23T00:45:00Z,0000380,00000600,0002.72,0002.23,0000.59,0000.09,0000.36,0000.03,0000.17,0000.33,0000.08,27.2,06.0,0680.1,34.6
2016-07-23T00:46:00Z,0000380,00000600,0002.44,0001.50,0001.50,-000.81,0000.50,0000.28,0000.08,-000.02,0000.17,27.2,06.1,0680.1,34.6
2016-07-23T00:47:00Z,0000380,00000600,0003.39,0002.25,0000.94,0000.37,0000.05,-000.30,0000.14,0000.36,0000.28,27.2,06.0,0680.1,34.6
2016-07-23T00:48:00Z,0000380,00000600,0001.94,0001.24,0000.21,0000.02,0000.33,-000.06,0000.03,-000.09,-000.31,27.2,06.0,0680.1,34.6
2016-07-23T00:49:00Z,0000380,00000600,0000.64,0000.10,0000.11,-000.56,-000.06,-000.11,0000.22,0000.01,0000.16,27.2,06.0,0680.1,34.6
2016-07-23T00:50:00Z,0000380,00000600,0000.21,0000.38,-000.19,0000.33,0000.28,0000.05,-000.04,-000.07,0000.07,27.2,05.9,0680.1,34.6
2016-07-23T00:51:00Z,0000380,00000600,0000.21,-000.12,0000.13,-000.48,-000.26,-000.09,-000.11,0000.04,-000.01,27.3,06.0,0680.1,34.6
2016-07-23T00:52:00Z,0000380,00000600,0000.80,0000.00,0000.45,-000.37,0000.31,0000.34,0000.01,-000.13,-000.01,27.2,05.9,0680.1,34.6
2016-07-23T00:53:00Z,0000380,00000600,-000.32,0000.35,0000.15,-001.08,0000.11,0000.12,-000.06,-000.04,-000.30,27.3,05.8,0680.1,34.6
2016-07-23T00:54:00Z,0000380,00000600,0000.79,0000.64,0000.20,0000.14,0000.09,0000.14,0000.01,0000.01,0000.13,27.3,05.8,0680.1,34.6
2016-07-23T00:55:00Z,0000380,00000600,0002.12,0001.03,0000.19,-000.23,0000.25,-000.08,0000.13,0000.17,0000.40,27.3,05.8,0680.1,34.6
2016-07-23T00:56:00Z,0000380,00000600,0000.27,0000.35,-000.06,0000.02,0000.16,0000.02,-000.06,0000.05,-000.07,27.3,05.8,0680.1,34.6
2016-07-23T00:57:00Z,0000380,40000600,,,,,,,,,,,,0680.1,34.6
2016-07-23T00:58:00Z,0000380,60000600,,,,,,,,,,27.0,05.8,0679.1,34.6
2016-07-23T00:59:00Z,0000380,20000600,,,,,,,,,,27.0,05.8,0679.0,34.6
2016-07-23T01:00:00Z,0000380,20000600,,,,,,,,,,27.0,05.8,0679.0,34.6
2016-07-23T01:01:00Z,0000380,20000600,,,,,,,,,,27.0,05.7,0679.0,34.6
2016-07-23T01:02:00Z,0000380,20000600,,,,,,,,,,27.0,05.7,0679.0,34.6
2016-07-23T01:03:00Z,0000380,60000600,,,,,,,,,,27.1,05.7,0679.0,34.6
2016-07-23T01:04:00Z,0000380,40000600,0000.60,0000.47,-000.78,0000.36,0000.31,-000.08,0000.08,-000.11,-000.01,27.2,05.3,0680.0,34.6
2016-07-23T01:05:00Z,0000380,00000600,0000.60,-000.05,-000.15,0000.03,-000.11,-000.02,-000.05,0000.22,-000.03,27.3,05.3,0680.1,34.6
2016-07-23T01:06:00Z,0000380,00000600,-000.31,0001.13,-000.29,0000.14,0000.05,-000.03,-000.01,-000.31,0000.22,27.3,05.3,0680.1,34.6
2016-07-23T01:07:00Z,0000380,00000600,0000.66,-000.18,0000.12,0000.86,0000.28,0000.30,-000.09,0000.27,-000.03,27.3,05.3,0680.1,34.6
2016-07-23T01:08:00Z,0000380,00000600,-000.72,-000.22,0000.28,-000.50,-000.16,0000.16,0000.09,-000.14,-000.10,27.3,05.1,0680.1,34.6
2016-07-23T01:09:00Z,0000380,00000600,-000.50,0000.60,0000.27,-000.05,0000.00,-000.36,-000.05,-000.18,0000.06,27.2,05.1,0680.1,34.6
2016-07-23T01:10:00Z,0000380,00000600,0001.05,0000.45,0000.54,0000.33,-000.05,-000.11,0000.02,0000.06,-000.18,27.3,05.0,0680.1,34.6
2016-07-23T01:11:00Z,0000380,00000600,0001.11,-000.08,0000.10,0000.12,0000.03,0000.25,0000.12,0000.11,-000.17,27.3,05.0,0680.1,34.6
2016-07-23T01:12:00Z,0000380,00000600,0000.68,0000.38,0000.53,0000.12,0000.36,0000.28,-000.15,-000.25,0000.25,27.3,04.9,0680.1,34.6
2016-07-23T01:13:00Z,0000380,00000600,0000.59,0000.26,0000.39,0000.50,-000.23,0000.19,0000.06,0000.07,-000.22,27.3,04.8,0680.1,34.6
2016-07-23T01:14:00Z,0000380,00000600,-000.29,-000.26,0000.10,-000.19,0000.09,0000.41,-000.16,-000.16,-000.06,27.3,04.7,0680.1,34.6
2016-07-23T01:15:00Z,0000380,00000600,-000.24,0000.61,0000.49,0000.26,0000.25,-000.16,0000.16,0000.37,0000.33,27.3,04.5,0680.1,34.6
2016-07-23T01:16:00Z,0000380,00000600,0000.77,0000.41,0000.45,0000.16,0000.05,0000.06,0000.17,-000.11,-000.05,27.3,04.6,0680.1,34.6
2016-07-23T01:17:00Z,0000380,00000600,-000.14,-000.52,0000.88,0000.28,0000.26,0000.30,-000.11,-000.02,-000.05,27.3,04.6,0680.1,34.6
2016-07-23T01:18:00Z,0000380,00000600,-000.87,0000.03,0001.21,-000.05,0000.51,0000.22,0000.16,0000.31,0000.12,27.3,04.6,0680.1,34.6
2016-07-23T01:19:00Z,0000380,00000600,0000.89,0000.62,0000.93,0000.55,0000.06,0000.25,0000.36,0000.12,0000.07,27.3,04.5,0680.1,34.6
2016-07-23T01:20:00Z,0000380,00000600,0000.34,0000.08,0000.30,-000.59,0000.40,0000.25,0000.19,0000.14,0000.25,27.3,04.4,0680.1,34.6
2016-07-23T01:21:00Z,0000380,00000600,0000.02,0000.39,-000.19,0000.53,0000.20,0000.34,-000.07,0000.03,-000.44,27.3,04.4,0680.1,34.6
2016-07-23T01:22:00Z,0000380,00000600,0000.06,0000.18,0000.62,0000.23,0000.59,0000.31,0000.22,0000.28,0000.45,27.3,04.4,0680.1,34.6
2016-07-23T01:23:00Z,0000380,00000600,0000.55,0000.74,-000.12,0000.09,0000.34,-000.03,-000.20,-000.12,-000.05,27.3,04.4,0680.1,34.6
2016-07-23T01:24:00Z,0000380,00000600,0000.00,-000.40,0000.04,-000.33,0000.31,0000.12,0000.24,-000.04,0000.14,27.3,04.5,0680.1,34.6
2016-07-23T01:25:00Z,0000380,00000600,-001.29,0000.19,0000.86,0000.00,0000.20,0000.44,0000.01,0000.13,-000.00,27.3,04.6,0680.1,34.6
2016-07-23T01:26:00Z,0000380,00000600,0001.16,0000.50,-000.13,0000.26,0000.22,0000.25,0000.01,0000.08,-000.13,27.3,04.7,0680.1,34.6
2016-07-23T01:27:00Z,0000380,00000600,-000.50,0000.51,0000.21,0000.36,0000.22,0000.39,0000.17,0000.13,0000.27,27.3,04.8,0680.1,34.6
2016-07-23T01:28:00Z,0000380,00000600,-001.11,0000.63,0000.03,-000.59,0000.22,-000.14,0000.09,0000.15,-000.16,27.3,05.0,0680.1,34.6
2016-07-23T01:29:00Z,0000380,00000600,0000.04,0000.49,0000.52,-000.06,0000.20,0000.11,0000.08,-000.09,0000.24,27.3,05.0,0680.0,34.6
2016-07-23T01:30:00Z,0000380,00000600,-001.31,-000.16,0000.53,0000.12,0000.28,0000.05,0000.09,0000.05,-000.17,27.3,05.0,0680.0,34.6
2016-07-23T01:31:00Z,0000380,00000600,0002.19,0000.74,0001.75,0000.09,0000.48,0000.25,0000.40,0000.51,0000.27,27.3,05.0,0680.1,34.6
2016-07-23T01:32:00Z,0000380,00000600,0000.89,0000.20,0000.40,0000.53,0000.57,0000.27,0000.11,-000.12,0000.55,27.3,05.0,0680.0,34.6
2016-07-23T01:33:00Z,0000380,00000600,0000.38,-000.02,0000.45,-000.12,-000.17,0000.39,0000.08,0000.21,-000.14,27.3,05.0,0680.0,34.6
2016-07-23T01:34:00Z,0000380,00000600,0000.21,0000.23,-000.14,0000.12,-000.12,-000.20,0000.03,-000.08,-000.07,27.3,05.2,0680.0,34.6
2016-07-23T01:35:00Z,0000380,00000600,0000.82,0000.76,0000.42,0000.41,0000.39,0000.02,-000.10,0000.02,-000.11,27.3,05.2,0680.0,34.6
2016-07-23T01:36:00Z,0000380,00000600,0000.17,-000.17,0000.02,-000.30,0000.33,0000.31,0000.13,0000.14,0000.18,27.3,05.3,0680.0,34.6
2016-07-23T01:37:00Z,0000380,00000600,0000.43,0000.07,-000.20,0000.30,-000.16,-000.25,0000.19,0000.09,-000.13,27.3,05.4,0680.0,34.6
2016-07-23T01:38:00Z,0000380,00000600,-000.81,0000.18,-000.13,0000.23,0000.28,-000.30,-000.04,-000.13,0000.04,27.3,05.3,0680.0,34.6
2016-07-23T01:39:00Z,0000380,00000600,0000.02,0000.41,0001.42,-000.16,0000.17,0000.37,-000.06,0000.04,-000.04,27.3,05.4,0680.0,34.6
2016-07-23T01:40:00Z,0000380,00000600,0000.00,0000.24,0000.27,0000.02,-000.03,0000.03,-000.01,-000.06,-000.00,27.3,05.4,0680.0,34.6
2016-07-23T01:41:00Z,0000380,00000600,-000.54,0000.65,0000.63,0000.12,0000.31,0000.53,-000.03,0000.10,0000.04,27.3,05.4,0680.0,34.6
2016-07-23T01:42:00Z,0000380,00000600,-000.37,0000.45,0000.43,0000.09,0000.25,0000.44,0000.02,-000.04,0000.11,27.3,05.4,0680.0,34.6
2016-07-23T01:43:00Z,0000380,00000600,0001.17,0000.55,0000.27,0000.33,0000.20,-000.02,-000.07,0000.13,0000.04,27.3,05.5,0680.0,34.6
2016-07-23T01:44:00Z,0000380,00000600,-000.43,-000.06,0000.07,0000.09,0000.19,0000.00,0000.18,-000.02,0000.07,27.3,05.5,0680.0,34.6
2016-07-23T01:45:00Z,0000380,00000600,-000.19,0000.22,0000.00,-000.42,0000.26,-000.03,-000.04,0000.07,-000.06,27.3,05.5,0680.0,34.6
2016-07-23T01:46:00Z,0000380,00000600,-000.26,0000.89,0000.85,0000.09,0000.33,0000.06,0000.09,0000.07,0000.09,27.3,05.5,0680.0,34.6
2016-07-23T01:47:00Z,0000380,00000600,0000.10,-000.10,0000.25,0000.58,-000.02,0000.03,0000.07,-000.02,-000.10,27.3,05.5,0680.0,34.6
2016-07-23T01:48:00Z,0000380,00000600,0000.93,0000.18,0000.27,-000.34,0000.20,-000.20,0000.02,0000.05,0000.05,27.3,05.5,0680.0,34.6
2016-07-23T01:49:00Z,0000380,00000600,-001.00,-000.06,0000.08,0000.86,-000.17,0000.36,-000.11,-000.09,0000.11,27.3,05.5,0680.0,34.6
2016-07-23T01:50:00Z,0000380,00000600,0000.12,-000.36,0000.11,-000.25,0000.12,0000.23,-000.11,-000.08,-000.30,27.3,05.4,0680.0,34.6
2016-07-23T01:51:00Z,0000380,00000600,0000.54,0000.51,0000.45,-000.05,0000.54,0000.19,0000.05,-000.05,-000.18,27.3,05.1,0680.0,34.6
2016-07-23T01:52:00Z,0000380,00000600,0001.36,0001.04,0001.26,0000.72,0000.37,0000.20,0000.38,0000.30,0000.55,27.4,05.0,0680.0,34.6
2016-07-23T01:53:00Z,0000380,00000600,-000.21,0000.47,0000.26,-000.47,0000.03,-000.14,-000.02,-000.08,0000.01,27.4,04.8,0680.0,34.6
2016-07-23T01:54:00Z,0000380,00000600,0000.47,-000.11,0000.19,0000.08,0000.36,0000.37,0000.01,-000.00,-000.00,27.4,04.7,0680.0,34.6
2016-07-23T01:55:00Z,0000380,00000600,0001.03,0001.03,0001.09,0000.23,0000.45,-000.02,0000.51,0000.23,-000.05,27.4,04.7,0680.0,34.6
2016-07-23T01:56:00Z,0000380,00000600,-000.24,0000.37,0000.13,0000.28,-000.03,-000.25,0000.06,0000.26,-000.08,27.4,04.9,0680.0,34.6
2016-07-23T01:57:00Z,0000380,40000600,,,,,,,,,,,,0680.4,34.6
2016-07-23T01:58:00Z,0000380,60000600,,,,,,,,,,27.3,05.1,0679.0,34.6
2016-07-23T01:59:00Z,0000380,20000600,,,,,,,,,,27.2,05.1,0678.9,34.6
2016-07-23T02:00:00Z,0000380,20000600,,,,,,,,,,27.2,05.1,0678.9,34.6
2016-07-23T02:01:00Z,0000380,20000600,,,,,,,,,,27.2,05.1,0678.9,34.6
2016-07-23T02:02:00Z,0000380,20000600,,,,,,,,,,27.2,05.1,0678.9,34.6
2016-07-23T02:03:00Z,0000380,60000600,,,,,,,,,,27.2,05.1,0679.0,34.6
2016-07-23T02:04:00Z,0000380,40000600,-000.13,0000.53,0001.06,-000.27,-000.62,0000.20,0000.12,-000.08,-000.09,27.3,05.0,0679.9,34.6
2016-07-23T02:05:00Z,0000380,00000600,-000.02,0000.50,-000.47,-000.08,0000.09,0000.08,0000.01,-000.11,-000.21,27.3,04.9,0680.0,34.6
2016-07-23T02:06:00Z,0000380,00000600,0000.14,-000.18,0000.29,0000.23,-000.02,0000.23,-000.05,-000.05,-000.11,27.3,04.8,0680.0,34.6
2016-07-23T02:07:00Z,0000380,00000600,0001.02,0000.30,0000.55,0000.30,-000.20,0000.25,-000.04,0000.19,0000.09,27.3,04.9,0680.0,34.6
2016-07-23T02:08:00Z,0000380,00000600,0000.72,0003.39,0002.82,0000.47,0000.53,0000.09,0000.70,0000.49,0000.51,27.4,04.9,0679.9,34.6
2016-07-23T02:09:00Z,0000380,00000600,0000.73,0000.12,-000.04,-000.31,0000.09,0000.19,0000.13,-000.01,0000.17,27.4,05.0,0679.9,34.6
2016-07-23T02:10:00Z,0000380,00000600,0000.72,0000.02,0000.40,-000.19,0000.11,-000.05,-000.19,-000.01,-000.30,27.4,04.9,0679.9,34.6
2016-07-23T02:11:00Z,0000380,00000600,0001.01,0000.32,0000.22,0000.50,0000.39,-000.12,-000.11,0000.03,0000.24,27.4,05.0,0679.9,34.6
2016-07-23T02:12:00Z,0000380,00000600,-000.24,0000.60,0000.35,-000.31,-000.20,0000.02,0000.19,0000.11,-000.17,27.4,05.1,0679.9,34.6
2016-07-23T02:13:00Z,0000380,00000600,0001.84,0001.55,0001.60,0000.16,0000.31,0000.27,0000.49,0000.59,0000.25,27.4,05.2,0679.9,34.6
2016-07-23T02:14:00Z,0000380,00000600,-000.29,0000.70,0000.34,-000.27,0000.26,0000.03,0000.29,-000.14,0000.26,27.4,05.2,0679.9,34.6
2016-07-23T02:15:00Z,0000380,00000600,-000.19,-000.34,0000.40,0000.45,0000.02,0000.03,0000.05,0000.20,-000.20,27.4,05.1,0679.9,34.6
2016-07-23T02:16:00Z,0000380,00000600,-000.43,-000.15,0000.18,0001.15,0000.14,0000.11,-000.14,-000.05,0000.28,27.4,05.2,0679.9,34.6
2016-07-23T02:17:00Z,0000380,00000600,-000.33,0000.14,-000.13,-000.27,0000.06,-000.48,-000.00,-000.02,-000.33,27.4,05.2,0679.9,34.6
2016-07-23T02:18:00Z,0000380,00000600,-000.39,0000.62,0000.58,0000.05,0000.14,0000.42,0000.50,0000.38,0000.39,27.4,05.3,0679.9,34.6
2016-07-23T02:19:00Z,0000380,00000600,0002.59,0001.41,0001.29,0000.23,0000.47,0000.17,0000.24,0000.24,0000.21,27.4,05.3,0679.9,34.6
2016-07-23T02:20:00Z,0000380,00000600,0004.35,0002.78,0001.74,0001.14,0000.34,0000.39,0000.25,0000.30,0000.22,27.4,05.4,0679.8,34.6
2016-07-23T02:21:00Z,0000380,00000600,0004.15,0002.91,0001.24,-000.23,0000.12,0000.02,0000.28,0000.22,0000.20,27.4,05.6,0679.8,34.6
2016-07-23T02:22:00Z,0000380,00000600,0004.86,0004.02,0002.83,0000.84,0000.76,0000.48,0000.74,0000.66,0000.68,27.3,05.5,0679.8,34.6
2016-07-23T02:23:00Z,0000380,00000600,0005.12,0003.72,0001.57,0000.27,0000.34,0000.11,0000.05,0000.17,0000.06,27.3,05.8,0679.8,34.6
2016-07-23T02:24:00Z,0000380,00000600,0003.64,0003.00,0001.48,0000.45,0000.64,-000.05,0000.39,0000.44,-000.02,27.3,05.8,0679.8,34.6
2016-07-23T02:25:00Z,0000380,00000600,0004.49,0002.98,0001.51,0000.62,0000.00,0000.44,0000.20,0000.07,0000.18,27.3,05.8,0679.8,34.6
2016-07-23T02:26:00Z,0000380,00000600,0005.02,0003.13,0001.55,0001.09,0000.31,0000.20,0000.24,0000.13,0000.37,27.3,05.9,0679.8,34.6
2016-07-23T02:27:00Z,0000380,00000600,0003.80,0002.64,0001.56,0000.62,0000.28,0000.03,0000.18,-000.06,0000.02,27.3,05.8,0679.8,34.6
2016-07-23T02:28:00Z,0000380,00000600,0004.10,0002.80,0001.21,0000.11,0000.73,0000.30,0000.11,0000.26,0000.04,27.3,05.7,0679.8,34.6
2016-07-23T02:29:00Z,0000380,00000600,0004.16,0003.12,0001.56,0000.17,0000.28,0000.16,0000.13,0000.20,0000.16,27.3,05.7,0679.8,34.6
2016-07-23T02:30:00Z,0000380,00000600,0003.73,0002.40,0001.16,0000.16,0000.29,-000.05,0000.00,0000.26,0000.08,27.3,05.6,0679.8,34.6
2016-07-23T02:31:00Z,0000380,00000600,0000.48,0000.53,0000.12,0000.41,-000.11,-000.36,0000.16,-000.22,-000.05,27.3,05.6,0679.8,34.6
2016-07-23T02:32:00Z,0000380,00000600,0000.12,-000.09,0000.07,0000.37,0000.06,0000.22,0000.03,-000.16,-000.17,27.3,05.6,0679.8,34.6
2016-07-23T02:33:00Z,0000380,00000600,-000.39,0000.38,-000.16,-000.37,0000.17,-000.30,-000.23,0000.11,0000.31,27.3,05.5,0679.8,34.6
2016-07-23T02:34:00Z,0000380,00000600,0000.22,0000.17,0000.10,-000.23,-000.03,-000.09,0000.08,-000.01,-000.12,27.3,05.5,0679.8,34.6
2016-07-23T02:35:00Z,0000380,00000600,0000.15,0000.52,-000.43,0000.23,0000.40,-000.20,0000.08,-000.06,-000.19,27.3,05.4,0679.8,34.6
2016-07-23T02:36:00Z,0000380,00000600,0000.31,-000.06,-000.03,0000.36,0000.17,-000.37,-000.04,0000.05,0000.24,27.3,05.4,0679.8,34.6
2016-07-23T02:37:00Z,0000380,00000600,0000.67,0000.38,0000.36,-000.42,0000.33,0000.27,-000.27,-000.00,0000.08,27.3,05.4,0679.8,34.6
2016-07-23T02:38:00Z,0000380,00000600,-001.10,-000.02,-000.17,0000.25,-000.14,-000.33,0000.21,-000.12,-000.34,27.3,05.4,0679.8,34.6
2016-07-23T02:39:00Z,0000380,00000600,-001.31,0000.60,0000.07,0000.27,0000.45,-000.11,0000.02,0000.08,0000.25,27.3,05.3,0679.8,34.6
2016-07-23T02:40:00Z,0000380,00000600,0000.16,0000.21,-000.36,-000.33,0000.09,-000.36,0000.09,0000.03,-000.06,27.3,05.3,0679.8,34.6
2016-07-23T02:41:00Z,0000380,00000600,-000.16,0000.02,-000.14,0000.70,0000.23,-000.02,-000.12,-000.03,-000.17,27.3,05.3,0679.8,34.6
2016-07-23T02:42:00Z,0000380,00000600,-000.48,-000.07,0000.09,0000.31,-000.19,-000.17,0000.23,0000.04,0000.17,27.3,05.2,0679.7,34.6
2016-07-23T02:43:00Z,0000380,00000600,-000.07,-000.24,0000.16,0000.50,0000.08,-000.02,-000.10,-000.07,-000.10,27.3,05.2,0679.7,34.6
2016-07-23T02:44:00Z,0000380,00000600,-000.36,-000.06,0000.04,0000.75,-000.17,0000.12,0000.02,0000.14,0000.20,27.3,05.2,0679.7,34.6
2016-07-23T02:45:00Z,0000380,00000600,0000.97,0000.24,0000.43,0000.03,-000.11,-000.02,0000.03,-000.01,0000.02,27.3,05.2,0679.7,34.6
2016-07-23T02:46:00Z,0000380,00000600,0001.28,0000.97,0001.18,0000.27,-000.30,0000.55,0000.31,0000.35,0000.05,27.3,05.2,0679.7,34.6
2016-07-23T02:47:00Z,0000380,00000600,0000.10,0000.43,0000.37,0000.02,-000.09,-000.14,0000.02,-000.08,0000.06,27.3,05.4,0679.7,34.6
2016-07-23T02:48:00Z,0000380,00000600,0000.31,0000.58,0000.24,0000.22,0000.14,0000.19,-000.07,0000.03,-000.06,27.3,05.2,0679.7,34.6
2016-07-23T02:49:00Z,0000380,00000600,-001.03,-000.33,-000.13,-000.25,-000.14,-000.08,0000.07,-000.03,0000.30,27.3,05.1,0679.7,34.6
2016-07-23T02:50:00Z,0000380,00000600,0000.62,0000.42,-000.27,-000.36,0000.03,0000.08,0000.17,-000.07,-000.33,27.3,05.0,0679.7,34.6
2016-07-23T02:51:00Z,0000380,00000600,-000.79,0000.36,0000.28,-000.03,-000.06,0000.00,-000.06,0000.02,0000.02,27.3,05.0,0679.7,34.6
2016-07-23T02:52:00Z,0000380,00000600,-000.15,0000.64,0000.06,-000.14,0000.36,-000.23,-000.11,-000.08,0000.05,27.3,04.8,0679.7,34.6
2016-07-23T02:53:00Z,0000380,00000600,-000.18,0000.24,0000.09,0000.45,0000.47,-000.19,-000.20,-000.17,-000.02,27.3,04.8,0679.7,34.6
2016-07-23T02:54:00Z,0000380,00000600,-000.69,0000.26,0000.03,0000.31,-000.03,0000.02,-000.08,0000.04,-000.09,27.3,04.7,0679.7,34.6
2016-07-23T02:55:00Z,0000380,00000600,-000.41,-000.12,-000.03,-000.09,0000.08,0000.08,-000.04,-000.06,-000.22,27.3,04.6,0679.7,34.6
2016-07-23T02:56:00Z,0000380,00000600,0000.25,0000.33,-000.15,-000.22,0000.11,-000.05,0000.01,0000.04,0000.08,27.3,04.5,0679.8,34.6
2016-07-23T02:57:00Z,0000380,40000600,,,,,,,,,,,,0679.9,34.6
2016-07-23T02:58:00Z,0000380,60000600,,,,,,,,,,27.2,04.6,0678.7,34.6
2016-07-23T02:59:00Z,0000380,20000600,,,,,,,,,,27.2,04.5,0678.7,34.6
2016-07-23T03:00:00Z,0000380,20000600,,,,,,,,,,27.2,04.5,0678.7,34.6
2016-07-23T03:01:00Z,0000380,20000600,,,,,,,,,,27.2,04.5,0678.7,34.6
2016-07-23T03:02:00Z,0000380,20000600,,,,,,,,,,27.2,04.5,0678.7,34.6
2016-07-23T03:03:00Z,0000380,60010600,,,,,,,,,,27.2,04.4,0678.7,34.6
2016-07-23T03:04:00Z,0000380,40000600,-000.02,-000.02,-000.15,0000.14,-000.16,-000.42,-000.00,0000.00,-000.11,27.3,04.4,0679.5,34.6
2016-07-23T03:05:00Z,0000380,00000600,-000.13,0000.74,0000.14,0000.06,0000.34,-000.12,0000.02,0000.13,0000.13,27.3,04.4,0679.6,34.6
2016-07-23T03:06:00Z,0000380,00000600,0000.76,0002.21,0001.70,0000.17,0000.90,0000.27,0000.63,0000.48,0000.48,27.3,04.4,0679.6,34.6
2016-07-23T03:07:00Z,0000380,00000600,-000.52,0000.00,0001.10,0000.58,0000.05,0000.12,0000.22,0000.13,0000.36,27.3,04.3,0679.6,34.6
2016-07-23T03:08:00Z,0000380,00000600,0001.16,0000.18,0000.19,0000.20,0000.14,-000.28,0000.21,0000.03,-000.21,27.3,04.3,0679.6,34.6
2016-07-23T03:09:00Z,0000380,00000600,0000.58,0000.45,0000.37,0000.11,-000.17,-000.22,0000.09,0000.18,0000.07,27.3,04.3,0679.6,34.6
2016-07-23T03:10:00Z,0000380,00000600,0001.04,0000.32,-000.07,-000.16,0000.17,-000.48,0000.00,0000.01,-000.06,27.3,04.2,0679.6,34.6
2016-07-23T03:11:00Z,0000380,00000600,0000.06,0000.62,0001.07,0001.03,0000.05,0000.16,0000.13,0000.12,0000.31,27.3,04.2,0679.6,34.6
2016-07-23T03:12:00Z,0000380,00000600,0000.57,0001.05,0000.94,0000.08,0000.02,-000.39,0000.60,0000.41,0000.29,27.3,04.3,0679.6,34.6